WB7GR Weather Reports


Display with metric or nautical units.
time (UTC)temp
F
wind
direction
speed
MPH
gust
MPH
rain 1hr
in
rain 24hr
in
rain mn
in
humidity
%
barometer
mb
20260507154546 50 277 1.0 7.0 0.00 0.00 0.00 51 1016.1
20260507153051 50 252 3.0 12.0 0.00 0.00 0.00 49 1016.5
20260507151559 51 268 2.0 9.0 0.00 0.00 0.00 49 1016.6
20260507150120 50 253 7.0 13.0 0.00 0.00 0.00 50 1016.6
20260507144548 49 278 7.0 17.0 0.00 0.00 0.00 50 1016.4
20260507143058 48 266 11.0 22.0 0.00 0.00 0.00 50 1016.3
20260507141545 48 266 11.0 22.0 0.00 0.00 0.00 51 1016.0
20260507140112 46 280 13.0 23.0 0.00 0.00 0.00 52 1015.9
20260507134616 46 225 6.0 19.0 0.00 0.00 0.00 54 1015.6
20260507133106 45 261 8.0 19.0 0.00 0.00 0.00 54 1015.4
20260507131550 45 257 7.0 19.0 0.00 0.00 0.00 55 1015.4
20260507130056 45 284 12.0 23.0 0.00 0.00 0.00 54 1015.2
20260507124548 45 223 8.0 19.0 0.00 0.00 0.00 54 1015.1
20260507123052 44 304 10.0 23.0 0.00 0.00 0.00 54 1015.0
20260507114541 43 257 10.0 21.0 0.00 0.00 0.00 55 1014.8
20260507113050 43 248 6.0 17.0 0.00 0.00 0.00 55 1014.8
20260507111559 43 225 11.0 24.0 0.00 0.00 0.00 55 1014.5
20260507110047 43 242 10.0 20.0 0.00 0.00 0.00 54 1014.6
20260507104551 43 234 9.0 24.0 0.00 0.00 0.00 54 1014.6
20260507103122 43 233 13.0 25.0 0.00 0.00 0.00 54 1014.4
20260507101547 43 248 11.0 22.0 0.00 0.00 0.00 54 1014.6
20260507100052 43 246 11.0 24.0 0.00 0.00 0.00 53 1014.6
20260507094544 43 233 11.0 26.0 0.00 0.00 0.00 53 1014.7
20260507093051 43 252 8.0 18.0 0.00 0.00 0.00 54 1014.8
20260507090059 43 223 12.0 23.0 0.00 0.00 0.00 53 1014.8
20260507083045 43 204 10.0 25.0 0.00 0.00 0.00 54 1014.7
20260507081555 42 259 12.0 25.0 0.00 0.00 0.00 54 1014.8
20260507080042 42 282 10.0 27.0 0.00 0.00 0.00 53 1014.8
20260507074549 42 241 10.0 20.0 0.00 0.00 0.00 52 1014.9
20260507073059 42 209 11.0 20.0 0.00 0.00 0.00 52 1014.9
20260507071546 42 257 13.0 27.0 0.00 0.00 0.00 53 1015.0
20260507070112 41 269 7.0 19.0 0.00 0.00 0.00 55 1015.2
20260507064601 41 310 7.0 19.0 0.00 0.00 0.00 55 1015.2
20260507063047 40 263 4.0 19.0 0.00 0.00 0.00 58 1015.5
20260507061611 38 225 6.0 16.0 0.00 0.00 0.00 62 1015.8
20260507060042 32 209 1.0 3.0 0.00 0.00 0.00 81 1015.9
20260507054549 32 207 0.0 8.0 0.00 0.00 0.00 82 1016.1
20260507053054 33 189 4.0 12.0 0.00 0.00 0.00 81 1016.2
20260507051543 33 194 7.0 12.0 0.00 0.00 0.00 82 1016.2
20260507050050 33 238 6.0 14.0 0.00 0.00 0.00 81 1016.3
20260507044617 33 201 3.0 13.0 0.00 0.00 0.00 81 1016.2
20260507043048 33 251 6.0 12.0 0.00 0.00 0.00 81 1016.2
20260507041552 33 223 7.0 18.0 0.00 0.00 0.00 80 1016.1
20260507040054 34 213 6.0 13.0 0.00 0.00 0.00 79 1016.3
20260507034600 34 238 4.0 11.0 0.00 0.00 0.00 79 1016.4
20260507033104 34 169 2.0 12.0 0.00 0.00 0.00 78 1016.4
20260507031544 34 210 3.0 11.0 0.00 0.00 0.00 78 1016.6
20260507030049 34 227 6.0 10.0 0.00 0.00 0.00 78 1016.6
20260507024601 34 198 4.0 10.0 0.00 0.00 0.00 77 1016.5
20260507023045 34 229 2.0 11.0 0.00 0.00 0.00 77 1016.4
20260507021552 34 224 2.0 15.0 0.00 0.00 0.00 76 1016.5
20260507020042 35 222 3.0 12.0 0.00 0.00 0.00 75 1016.6
20260507014547 35 213 327.0 327.0 0.00 0.00 0.00 74 1016.4
20260507013056 36 180 4.0 10.0 0.00 0.00 0.00 73 1016.8
20260507011546 37 208 5.0 11.0 0.00 0.00 0.00 71 1016.9
20260507010054 38 156 4.0 10.0 0.00 0.00 0.00 69 1016.9
20260507004545 38 198 5.0 13.0 0.00 0.00 0.00 69 1016.9
20260507003049 38 176 4.0 15.0 0.00 0.00 0.00 68 1016.9
20260507001555 39 211 4.0 15.0 0.00 0.00 0.00 67 1016.9
20260507000043 39 171 6.0 13.0 0.00 0.00 0.00 65 1017.1
20260506234552 38 237 6.0 12.0 0.00 0.01 0.00 66 1017.2
20260506233057 38 167 10.0 15.0 0.00 0.01 0.00 65 1017.4
20260506231623 38 218 8.0 12.0 0.00 0.01 0.00 64 1017.5
20260506230052 38 196 6.0 13.0 0.00 0.01 0.00 65 1017.4
20260506224555 38 194 8.0 14.0 0.00 0.03 0.00 65 1017.5
20260506223103 38 190 6.0 15.0 0.00 0.03 0.00 66 1017.6
20260506221550 38 196 327.0 327.0 0.00 0.00 0.00 66 1017.7
20260506220042 37 188 8.0 15.0 0.00 0.03 0.00 66 1017.9
20260506214549 37 166 6.0 13.0 0.00 0.05 0.00 67 1017.9
20260506213059 38 188 7.0 14.0 0.00 0.05 0.00 65 1018.2
20260506211545 37 161 5.0 11.0 0.00 0.05 0.00 64 1018.5
20260506210047 37 228 4.0 14.0 0.00 0.05 0.00 66 1018.6
20260506204557 37 198 7.0 13.0 0.00 0.15 0.00 62 1018.7
20260506203042 37 173 5.0 11.0 0.00 0.15 0.00 62 1018.9
20260506201546 36 168 8.0 0.0 0.00 0.00 0.00 63 1018.6
20260506200056 37 167 6.0 16.0 0.00 0.15 0.00 61 1019.1
20260506194542 37 175 2.0 11.0 0.00 0.15 0.00 62 1019.2
20260506193047 36 161 2.0 10.0 0.00 0.15 0.00 59 1019.2
20260506191557 36 217 4.0 13.0 0.00 0.15 0.00 60 1019.2
20260506190057 36 175 2.0 6.0 0.00 0.15 0.00 61 1019.2
20260506184542 35 146 1.0 7.0 0.00 0.21 0.00 64 1019.5
20260506183052 35 121 1.0 5.0 0.00 0.21 0.00 67 1019.7
20260506181559 35 140 1.0 3.0 0.00 0.21 0.00 67 1019.7
20260506180106 35 107 1.0 3.0 0.00 0.21 0.00 66 1019.8
20260506174555 35 163 1.0 2.0 0.00 0.30 0.00 67 1019.9
20260506173041 36 103 0.0 1.0 0.00 0.30 0.00 63 1020.0
20260506171545 36 314 1.0 5.0 0.00 0.30 0.00 68 1019.7
20260506170056 35 280 0.0 2.0 0.00 0.30 0.00 64 1019.7
20260506164548 35 333 0.0 3.0 0.00 0.38 0.00 65 1019.7
20260506163058 35 57 1.0 5.0 0.00 0.38 0.00 75 1019.5
20260506161554 35 5 1.0 4.0 0.00 0.38 0.00 74 1019.4
20260506160044 34 10 0.0 5.0 0.00 0.38 0.00 74 1019.3